Regional Weather Roundup
Issued by NWS Charleston, SC

Current Version | Previous Version | Graphics & Text | Print | Product List | Glossary On
Versions: 1 2 3 4 5 6 7 8 9 10 11 12 13 14 15 16 17 18 19 20 21 22 23 24 25 26 27 28 29 30 31 32 33 34 35 36 37 38 39 40 41 42 43 44 45 46 47 48 49 50
000 ASUS42 KCHS 312013 RWRCHS REGIONAL WEATHER ROUNDUP NATIONAL WEATHER SERVICE CHARLESTON SC 400 PM EDT TUE MAY 31 2016 NOTE: "FAIR" INDICATES FEW OR NO CLOUDS BELOW 12,000 FEET WITH NO SIGNIFICANT WEATHER AND/OR OBSTRUCTIONS TO VISIBILITY. NOT ALL STATIONS ARE QUALITY CONTROLLED. USE DATA WITH CAUTION... ESPECIALLY DEWPOINT OBSERVATIONS. SCZ027-030-031-034>040-042>050-312100- ...SOUTHEAST SOUTH CAROLINA... CITY SKY/WX TMP DP RH WIND PRES REMARKS N CHARLESTON PTSUNNY 89 69 51 NW12 29.89S HX 93 WATERFRONT PRK N/A 82 73 74 N6 29.87F MOUNT PLEASANT MOCLDY 79 72 78 NE8 29.90R JOHNS ISLAND MOCLDY 88 70 55 NW8 29.89S HX 92 PINOPOLIS N/A 86 73 66 NW7 29.80F HX 93 MONCKS CORNER FAIR 82 66 57 N8 29.89S SUMMERVILLE FAIR 86 70 58 NW3 29.90F HX 90 BEAUFORT MCAS MOSUNNY 88 70 55 NW8 29.90F HX 93 BEAUFORT ARPT FAIR 86 68 54 NW5 29.90F HILTON HEAD IS MOSUNNY 84 73 70 SE7 29.92F HX 91 WALTERBORO PTCLDY 86 68 54 NW6 29.91S ALLENDALE FAIR 86 70 58 CALM 29.90F HX 90 ...SOUTHERN MIDLANDS AND PEE DEE... CITY SKY/WX TMP DP RH WIND PRES REMARKS GEORGETOWN MOCLDY 81 72 74 NW7 29.88F THUNDER KINGSTREE FAIR 84 68 58 N5 29.88F ORANGEBURG MOSUNNY 88 67 49 CALM 29.90F HX 91 BARNWELL FAIR 90 73 58 CALM 29.91F HX 98 AIKEN FAIR 88 66 48 W6 29.95F HX 90 MANNING FAIR 84 66 54 N7 29.89F COLUMBIA PTSUNNY 89 64 43 SE3 29.89F HX 90 SUMTER MOSUNNY 88 68 51 NE3 29.87F HX 91 FLORENCE MOSUNNY 88 68 51 N12 29.89F HX 91 MYRTLE BEACH PTSUNNY 73 64 73 NE7 29.90F N MYRTLE BEACH CLOUDY 75 72 90 NE8 29.87F $$ GAZ063-065-086>088-099>101-113>116-118-119-134>141-150-312100- ...SOUTHEAST GEORGIA... CITY SKY/WX TMP DP RH WIND PRES REMARKS SAVANNAH ARPT MOSUNNY 90 69 50 VRB5 29.89F HX 94 HUNTER AAF SUNNY 85 76 73 SE7 29.87F HX 95 FORT STEWART MOSUNNY 91 67 44 N8 29.85F HX 94 STATESBORO SUNNY 90 71 54 NE5 29.90F HX 96 SYLVANIA PTCLDY 89 70 52 NW3 29.91F HX 94 CLAXTON FAIR 91 71 52 N8 29.89F HX 97 ...CSRA...CENTRAL AND FAR SOUTHEAST GEORGIA... CITY SKY/WX TMP DP RH WIND PRES REMARKS THOMSON MOSUNNY 92 68 45 N6 29.95F HX 96 AUGUSTA-BUSH PTSUNNY 87 66 49 NW6 29.90F AUGUSTA-DANIEL N/A 88 68 51 S7 29.92F HX 91 SWAINSBORO MOCLDY 90 64 43 NW3 29.90F HX 91 VIDALIA MOSUNNY 91 64 40 CALM 29.89F HX 93 EASTMAN FAIR 93 60 32 N6 29.92S HX 93 HAZLEHURST MOCLDY 87 62 41 W5 29.89S ALMA MOSUNNY 86 63 45 S6 29.88F WAYCROSS CLOUDY 91 64 40 NE8 29.88F HX 92 JESUP FAIR 88 68 51 E3 29.88F HX 91 BAXLEY CLOUDY 93 63 36 N5 29.87F HX 94 BRUNSWICK MOSUNNY 90 72 55 S7 29.92R THUNDER HX 96 SAINT SIMONS SUNNY 83 73 72 E16 29.89F $$ SCZ027-028-034-036>038-045-046-048>050-GAZ119-141-312100- ...LAKE AND SUPPLEMENTAL COASTAL OBSERVATIONS... STATION/POSITION TIME TEMP WIND PRES WAVE SWELL AIR SEA DIR/SP/G HT/PER HT/PER/DIR (UTC) (F) (DEG/KT/KT) (MB) (FT/S) (FT/S/D) WINYAH BAY 1845 80 350/ 7 1011.0 LAKE MURRAY 1900 83 220/ 5/ 7 1012.5F ACE BASIN NERRS NOT AVBL FORT PULASKI 1900 80 77 100/ 8/ 10 1013.4F SAPELO ISLAND 1900 86 100/ 8 1013.0S $$ ANZ835-935-AMZ111-154-330-350-352-354-370-450-454-472-312100- ...C-MAN AND BUOY OBSERVATIONS... STATION/POSITION TIME TEMP WIND PRES WAVE SWELL AIR SEA DIR/SP/G HT/PER HT/PER/DIR (UTC) (F) (DEG/KT/KT) (MB) (FT/S) (FT/S/D) BUOY 41004 1950 76 78 250/ 6/ 8 1011.7F 4/ 8 3/ 8 BUOY 41008 1950 77 79 130/ 10/ 10 1012.2F 2/ 8 2/110/ 8 FOLLY BEACH CMAN 2000 78 150/ 7/ 8 1012.7R CAPERS NEARSHORE 1908 75 77 80/ 2/ 4 1012.2F FRIPP NEARSHORE 1908 81 78 140/ 2/ 4 1012.2F STATION/POSITION TIME TEMP WIND PRES WAVE SWELL AIR SEA DIR/SP/G HT/PER HT/PER/DIR (UTC) (F) (DEG/KT/KT) (MB) (FT/S) (FT/S/D) 5E ST. MARYS GA 2001 80 N/A 2/ 8 FRYING PAN BUOY 1900 78 80 140/ 10/ 14 1010.1F BUOY 41025 1950 80 82 180/ 2/ 4 1013.4F 4/ 8 3/140/ 8 CAPE LOOKOUT NC 2000 75 50/ 14/ 16 1012.5F BUOY 41002 1950 77 77 160/ 12/ 14 1014.2F 4/ 8 3/100/ 8 BUOY 41010 1920 80 80 200/ 8/ 10 1013.9F ST AUGUSTINE FL 2000 81 82 140/ 14/ 15 1012.9F $$

USA.gov is the U.S. government's official web portal to all federal, state and local government web resources and services.